Regional Weather Roundup
Issued by NWS

Home | Current Version | Previous Version | Graphics & Text | Print | Product List | Glossary Off
Versions: 1 2 3 4 5 6 7 8 9 10 11 12 13 14 15 16 17 18 19 20 21 22 23 24 25 26 27 28 29 30 31 32 33 34 35 36 37 38 39 40 41 42 43 44 45 46 47 48 49 50

000
ASUS45 KBOU 111710
RWRCO

WEATHER ROUNDUP FOR COLORADO
NATIONAL WEATHER SERVICE DENVER/BOULDER CO
1100 AM MDT FRI JUL 11 2014

NOTE: "FAIR" INDICATES FEW OR NO CLOUDS BELOW 12000 FEET WITH NO
SIGNIFICANT WEATHER AND/OR OBSTRUCTIONS TO VISIBILITY.

COZ001>005-013-030-031-111800-
...NORTHWEST COLORADO...

CITY           SKY/WX    TMP DP  RH WIND       PRES   REMARKS
CRAIG          MOSUNNY   73  53  49 NW6       30.24S
HAYDEN         MOSUNNY   70  52  52 CALM      30.26S
MEEKER         MOSUNNY   75  53  46 CALM      30.24S
MOUNT WERNER   NOT AVBL
STEAMBOAT SPGS MOSUNNY   71  53  53 CALM      30.28S
WALDEN         CLOUDY    66  50  55 SW6       30.36S
$$

COZ006>008-011-111800-
...WEST CENTRAL VALLEYS...

CITY           SKY/WX    TMP DP  RH WIND       PRES   REMARKS
GRAND JUNCTION SUNNY     82  53  36 VRB5      30.12F
MONTROSE       MOSUNNY   80  55  42 CALM      30.21F
EAGLE          MOSUNNY   72  55  56 CALM      30.29F
RIFLE          SUNNY     76  56  49 VRB3      30.18F
DELTA          MOSUNNY   85  51  30 E3        30.16F
NUCLA          MOSUNNY   82  46  28 SW10      30.25S
$$

COZ017>023-064>068-111800-
...SOUTHWEST COLORADO...

CITY           SKY/WX    TMP DP  RH WIND       PRES   REMARKS
DURANGO        PTSUNNY   74  55  51 VRB3      30.29S
CORTEZ         SUNNY     80  52  37 SW12      30.23S
PAGOSA SPRINGS PTSUNNY   70  49  46 SW3       30.36S
TELLURIDE      PTSUNNY   68  46  45 CALM      30.45S
WOLF CREEK PAS NOT AVBL
$$

COZ009-010-012-014-032>034-037-058>063-111800-
...CENTRAL COLORADO...

CITY           SKY/WX    TMP DP  RH WIND       PRES   REMARKS
ASPEN          SUNNY     71  55  56 N7        30.33F
BUENA VISTA    SUNNY     75  43  31 E3        30.34F
COPPER MTN     MOSUNNY   61  41  48 W12G18    30.68R
BERTHOUD PASS  FAIR      52  36  54 W12G17    30.73R
COTTONWOOD PAS PTSUNNY   72  45  37 SE8       30.49F
GUNNISON       MOSUNNY   72  48  43 CALM      30.37F
KREMMLING      MOSUNNY   73  48  40 CALM      30.33F
LEADVILLE      MOSUNNY   66  44  45 N5        30.49S
MONARCH PASS   SUNNY     59  41  51 W12G21    30.78R
SALIDA         MOSUNNY   77  46  32 NE5       30.37F
SUNLIGHT       SUNNY     64  54  68 CALM      30.59R
WILKERSON PASS CLOUDY    63  41  45 NW5       30.65R
$$

COZ069>075-111800-
...SAN LUIS VALLEY/SANGRE DE CRISTO MOUNTAINS...

CITY           SKY/WX    TMP DP  RH WIND       PRES   REMARKS
ALAMOSA        SUNNY     78  48  34 VRB5      30.31F
LA VETA PASS   SUNNY     68  45  42 SW5       30.53R THUNDER
SAGUACHE       MOSUNNY   75  48  38 S6        30.35F
$$

COZ035-036-038>040-111800-
...NORTHERN COLORADO FRONT RANGE...

CITY           SKY/WX    TMP DP  RH WIND       PRES   REMARKS
DENVER INTL AP MOSUNNY   84  53  34 E5        30.15S
DMNS CITY PARK   N/A     82  53  37 E6        30.14S
AURORA         MOSUNNY   80  55  41 E7        30.18R
FRONT RANGE AP NOT AVBL
ERIE MUNI ARPT MOSUNNY   83  57  41 SE6       30.13S
BOULDER MUN AP MOSUNNY   81  55  41 N3        30.14S
CENTENNIAL     PTSUNNY   82  48  30 VRB7      30.18R
BROOMFIELD     PTSUNNY   82  55  39 VRB6      30.17S
FORT COLLINS   MOSUNNY   82  59  44 CALM      30.13R
LONGMONT       MOSUNNY   84  58  40 NE6       30.15R
$$

COZ041-046-047-076>085-087-088-111800-
...PIKES PEAK/PALMER DIVIDE AND SOUTHERN FOOTHILLS...

CITY           SKY/WX    TMP DP  RH WIND       PRES   REMARKS
COLO. SPRINGS  MOSUNNY   86  47  25 E7        30.20S
A. F. ACADEMY  MOSUNNY   80  46  29 VRB2      30.22S
ELLICOTT       NOT AVBL
FALCON         MOSUNNY   84  46  26 NE9G18    30.26S
FORT CARSON    MOSUNNY   88  47  24 SE8       30.17S
LIMON          SUNNY     85  53  33 N16G25    30.14R
MONUMENT HILL  SUNNY     77  43  29 NE5       30.26F
TRINIDAD       SUNNY     86  50  28 NE8       30.17S
$$

COZ042>045-048>051-090-091-111800-
...NORTHEAST COLORADO...

CITY           SKY/WX    TMP DP  RH WIND       PRES   REMARKS
GREELEY ARPT   NOT AVBL
AKRON          MOSUNNY   79  64  60 NW14G21   30.10S
BURLINGTON     MOSUNNY   83  62  49 CALM      30.06R
WRAY           MOSUNNY   84  56  38 CALM      30.03F
STERLING       MOSUNNY   82  68  61 CALM      30.06S
HOLYOKE        MOSUNNY   82  64  54 SW3       30.05S
FORT MORGAN    MOSUNNY   82  60  46 CALM      30.11S
$$

COZ086-089-092>099-111800-
...SOUTHEAST COLORADO...

CITY           SKY/WX    TMP DP  RH WIND       PRES   REMARKS
PUEBLO         SUNNY     91  50  24 NW6       30.07F
LA JUNTA       SUNNY     86  55  34 CALM      30.04F
LAMAR          SUNNY     94  50  22 SW10G18   29.98S
SPRINGFIELD      N/A     90  52  27 S15G29    30.07S
$$



USA.gov is the U.S. government's official web portal to all federal, state and local government web resources and services.